| time (UTC) | temp C | wind direction | speed KPH | gust KPH | rain 1hr cm | rain 24hr cm | rain mn cm | humidity % | barometer mb |
| 20260831110043 | 27 | 302 | 0.0 | 1.6 | 0.00 | 0.00 | 0.00 | 54 | 1016.3 |
| 20260831105542 | 27 | 28 | 1.6 | 3.2 | 0.00 | 0.00 | 0.00 | 54 | 1016.3 |
| 20260831105038 | 27 | 177 | 1.6 | 4.8 | 0.00 | 0.00 | 0.00 | 53 | 1016.3 |
| 20260831104534 | 27 | 310 | 1.6 | 1.6 | 0.00 | 0.00 | 0.00 | 54 | 1016.3 |
| 20260831104030 | 27 | 258 | 3.2 | 4.8 | 0.00 | 0.00 | 0.00 | 53 | 1016.2 |
| 20260831103525 | 27 | 87 | 0.0 | 1.6 | 0.00 | 0.00 | 0.00 | 53 | 1016.3 |
| 20260831103021 | 27 | 267 | 3.2 | 4.8 | 0.00 | 0.00 | 0.00 | 53 | 1016.2 |
| 20260831102520 | 27 | 306 | 0.0 | 3.2 | 0.00 | 0.00 | 0.00 | 53 | 1016.2 |
| 20260831102016 | 27 | 149 | 1.6 | 3.2 | 0.00 | 0.00 | 0.00 | 53 | 1016.3 |
| 20260831101511 | 27 | 8 | 1.6 | 3.2 | 0.00 | 0.00 | 0.00 | 52 | 1016.3 |
| 20260831101007 | 27 | 211 | 3.2 | 9.7 | 0.00 | 0.00 | 0.00 | 52 | 1016.2 |
| 20260831100503 | 27 | 264 | 3.2 | 4.8 | 0.00 | 0.00 | 0.00 | 52 | 1016.2 |
| 20260831095958 | 28 | 46 | 0.0 | 4.8 | 0.00 | 0.00 | 0.00 | 51 | 1016.3 |
| 20260831095457 | 28 | 210 | 1.6 | 1.6 | 0.00 | 0.00 | 0.00 | 51 | 1015.9 |
| 20260831094952 | 28 | 264 | 1.6 | 3.2 | 0.00 | 0.00 | 0.00 | 51 | 1016.2 |
| 20260831094448 | 28 | 240 | 3.2 | 4.8 | 0.00 | 0.00 | 0.00 | 50 | 1016.1 |
| 20260831093944 | 28 | 220 | 0.0 | 4.8 | 0.00 | 0.00 | 0.00 | 50 | 1016.1 |
| 20260831093439 | 28 | 307 | 3.2 | 4.8 | 0.00 | 0.00 | 0.00 | 50 | 1016.1 |
| 20260831092935 | 28 | 239 | 3.2 | 4.8 | 0.00 | 0.00 | 0.00 | 50 | 1016.1 |
| 20260831092431 | 28 | 299 | 3.2 | 6.4 | 0.00 | 0.00 | 0.00 | 49 | 1015.9 |
| 20260831091925 | 28 | 358 | 0.0 | 9.7 | 0.00 | 0.00 | 0.00 | 49 | 1015.7 |
| 20260831091420 | 28 | 286 | 1.6 | 14.5 | 0.00 | 0.00 | 0.00 | 49 | 1015.7 |
| 20260831090910 | 28 | 320 | 1.6 | 4.8 | 0.00 | 0.00 | 0.00 | 49 | 1015.5 |
| 20260831090406 | 28 | 236 | 0.0 | 3.2 | 0.00 | 0.00 | 0.00 | 49 | 1015.6 |
| 20260831085903 | 28 | 71 | 1.6 | 3.2 | 0.00 | 0.00 | 0.00 | 49 | 1015.8 |
| 20260831085402 | 29 | 308 | 0.0 | 6.4 | 0.00 | 0.00 | 0.00 | 49 | 1015.7 |
| 20260831084856 | 29 | 264 | 3.2 | 9.7 | 0.00 | 0.00 | 0.00 | 49 | 1015.5 |
| 20260831084353 | 29 | 252 | 3.2 | 6.4 | 0.00 | 0.00 | 0.00 | 48 | 1015.5 |
| 20260831083849 | 29 | 230 | 3.2 | 6.4 | 0.00 | 0.00 | 0.00 | 48 | 1015.6 |
| 20260831083344 | 29 | 271 | 3.2 | 9.7 | 0.00 | 0.00 | 0.00 | 48 | 1015.4 |
| 20260831082842 | 29 | 277 | 3.2 | 9.7 | 0.00 | 0.00 | 0.00 | 48 | 1015.8 |
| 20260831082332 | 30 | 177 | 1.6 | 9.7 | 0.00 | 0.00 | 0.00 | 48 | 1015.5 |
| 20260831081827 | 30 | 252 | 6.4 | 11.3 | 0.00 | 0.00 | 0.00 | 47 | 1015.7 |
| 20260831081322 | 30 | 238 | 8.0 | 9.7 | 0.00 | 0.00 | 0.00 | 47 | 1015.5 |
| 20260831080818 | 30 | 314 | 3.2 | 16.1 | 0.00 | 0.00 | 0.00 | 47 | 1015.6 |
| 20260831080313 | 30 | 207 | 1.6 | 4.8 | 0.00 | 0.00 | 0.00 | 47 | 1015.7 |
| 20260831075809 | 30 | 121 | 4.8 | 6.4 | 0.00 | 0.00 | 0.00 | 47 | 1015.7 |
| 20260831075306 | 29 | 238 | 3.2 | 6.4 | 0.00 | 0.00 | 0.00 | 47 | 1015.5 |
| 20260831074803 | 30 | 118 | 0.0 | 4.8 | 0.00 | 0.00 | 0.00 | 46 | 1015.6 |
| 20260831074302 | 30 | 37 | 1.6 | 6.4 | 0.00 | 0.00 | 0.00 | 46 | 1015.7 |
| 20260831073759 | 29 | 275 | 0.0 | 3.2 | 0.00 | 0.00 | 0.00 | 46 | 1015.5 |
| 20260831073257 | 29 | 211 | 1.6 | 3.2 | 0.00 | 0.00 | 0.00 | 46 | 1015.5 |
| 20260831072752 | 30 | 266 | 3.2 | 4.8 | 0.00 | 0.00 | 0.00 | 46 | 1015.5 |
| 20260831072249 | 30 | 258 | 0.0 | 6.4 | 0.00 | 0.00 | 0.00 | 46 | 1015.5 |
| 20260831071744 | 30 | 219 | 1.6 | 3.2 | 0.00 | 0.00 | 0.00 | 46 | 1015.5 |
| 20260831071238 | 30 | 231 | 4.8 | 9.7 | 0.00 | 0.00 | 0.00 | 45 | 1015.4 |
| 20260831070733 | 30 | 94 | 0.0 | 3.2 | 0.00 | 0.00 | 0.00 | 45 | 1015.5 |
| 20260831070227 | 30 | 227 | 1.6 | 3.2 | 0.00 | 0.00 | 0.00 | 44 | 1015.5 |
| 20260831065726 | 30 | 192 | 0.0 | 4.8 | 0.00 | 0.00 | 0.00 | 44 | 1015.5 |
| 20260831065224 | 30 | 55 | 1.6 | 4.8 | 0.00 | 0.00 | 0.00 | 44 | 1015.4 |
| 20260831064719 | 30 | 329 | 1.6 | 6.4 | 0.00 | 0.00 | 0.00 | 44 | 1015.5 |
| 20260831064215 | 30 | 54 | 1.6 | 3.2 | 0.00 | 0.00 | 0.00 | 44 | 1015.4 |
| 20260831063711 | 30 | 298 | 0.0 | 3.2 | 0.00 | 0.00 | 0.00 | 44 | 1015.3 |
| 20260831063206 | 30 | 194 | 0.0 | 9.7 | 0.00 | 0.00 | 0.00 | 44 | 1015.3 |
| 20260831062705 | 30 | 74 | 1.6 | 3.2 | 0.00 | 0.00 | 0.00 | 44 | 1015.3 |
| 20260831062205 | 31 | 254 | 3.2 | 6.4 | 0.00 | 0.00 | 0.00 | 44 | 1015.4 |
| 20260831061703 | 31 | 150 | 1.6 | 3.2 | 0.00 | 0.00 | 0.00 | 44 | 1015.3 |
| 20260831061159 | 31 | 273 | 0.0 | 6.4 | 0.00 | 0.00 | 0.00 | 44 | 1015.5 |
| 20260831060655 | 31 | 155 | 1.6 | 4.8 | 0.00 | 0.00 | 0.00 | 44 | 1015.6 |
| 20260831060154 | 31 | 318 | 0.0 | 6.4 | 0.00 | 0.00 | 0.00 | 44 | 1015.6 |
| 20260831055653 | 31 | 262 | 3.2 | 6.4 | 0.00 | 0.00 | 0.00 | 44 | 1015.3 |
| 20260831055149 | 31 | 83 | 1.6 | 6.4 | 0.00 | 0.00 | 0.00 | 44 | 1015.3 |
| 20260831054644 | 31 | 231 | 4.8 | 11.3 | 0.00 | 0.00 | 0.00 | 44 | 1015.3 |
| 20260831054143 | 31 | 267 | 1.6 | 3.2 | 0.00 | 0.00 | 0.00 | 43 | 1015.2 |
| 20260831053639 | 31 | 276 | 3.2 | 4.8 | 0.00 | 0.00 | 0.00 | 43 | 1015.2 |
| 20260831053137 | 31 | 158 | 1.6 | 6.4 | 0.00 | 0.00 | 0.00 | 43 | 1015.2 |
| 20260831052636 | 31 | 269 | 1.6 | 9.7 | 0.00 | 0.00 | 0.00 | 44 | 1015.3 |
| 20260831052135 | 31 | 268 | 3.2 | 6.4 | 0.00 | 0.00 | 0.00 | 44 | 1015.2 |
| 20260831051629 | 31 | 245 | 1.6 | 4.8 | 0.00 | 0.00 | 0.00 | 44 | 1015.1 |
| 20260831051127 | 31 | 34 | 4.8 | 6.4 | 0.00 | 0.00 | 0.00 | 44 | 1015.1 |
| 20260831050622 | 31 | 303 | 3.2 | 4.8 | 0.00 | 0.00 | 0.00 | 44 | 1015.2 |
| 20260831050120 | 31 | 48 | 3.2 | 6.4 | 0.00 | 0.00 | 0.00 | 44 | 1015.3 |
| 20260831045620 | 31 | 283 | 8.0 | 9.7 | 0.00 | 0.00 | 0.00 | 43 | 1015.3 |
| 20260831045110 | 31 | 252 | 4.8 | 9.7 | 0.00 | 0.00 | 0.00 | 43 | 1015.1 |
| 20260831044605 | 31 | 264 | 4.8 | 9.7 | 0.00 | 0.00 | 0.00 | 43 | 1015.1 |
| 20260831044100 | 31 | 205 | 3.2 | 11.3 | 0.00 | 0.00 | 0.00 | 43 | 1015.0 |
| 20260831043555 | 31 | 4 | 1.6 | 4.8 | 0.00 | 0.00 | 0.00 | 44 | 1015.1 |
| 20260831043051 | 31 | 142 | 3.2 | 12.9 | 0.00 | 0.00 | 0.00 | 43 | 1015.1 |
| 20260831042550 | 31 | 49 | 6.4 | 16.1 | 0.00 | 0.00 | 0.00 | 44 | 1015.0 |
| 20260831042045 | 31 | 349 | 3.2 | 3.2 | 0.00 | 0.00 | 0.00 | 44 | 1015.1 |
| 20260831041540 | 31 | 254 | 0.0 | 3.2 | 0.00 | 0.00 | 0.00 | 44 | 1015.1 |
| 20260831041039 | 31 | 281 | 1.6 | 4.8 | 0.00 | 0.00 | 0.00 | 43 | 1015.0 |
| 20260831040534 | 31 | 134 | 1.6 | 6.4 | 0.00 | 0.00 | 0.00 | 43 | 1015.0 |
| 20260831040033 | 32 | 292 | 4.8 | 6.4 | 0.00 | 0.00 | 0.00 | 42 | 1014.9 |
| 20260831035525 | 32 | 280 | 3.2 | 6.4 | 0.00 | 0.00 | 0.00 | 42 | 1015.1 |
| 20260831035021 | 32 | 271 | 0.0 | 3.2 | 0.00 | 0.00 | 0.00 | 42 | 1015.1 |
| 20260831034515 | 32 | 269 | 3.2 | 6.4 | 0.00 | 0.00 | 0.00 | 41 | 1015.1 |
| 20260831034010 | 32 | 241 | 3.2 | 4.8 | 0.00 | 0.00 | 0.00 | 41 | 1015.0 |
| 20260831033506 | 32 | 70 | 0.0 | 11.3 | 0.00 | 0.00 | 0.00 | 41 | 1014.8 |
| 20260831033001 | 32 | 249 | 3.2 | 4.8 | 0.00 | 0.00 | 0.00 | 41 | 1015.0 |
| 20260831032501 | 32 | 74 | 1.6 | 4.8 | 0.00 | 0.00 | 0.00 | 41 | 1014.9 |
| 20260831031956 | 32 | 273 | 1.6 | 3.2 | 0.00 | 0.00 | 0.00 | 41 | 1014.9 |
| 20260831031455 | 33 | 28 | 1.6 | 4.8 | 0.00 | 0.00 | 0.00 | 41 | 1014.9 |
| 20260831030955 | 33 | 351 | 3.2 | 9.7 | 0.00 | 0.00 | 0.00 | 41 | 1014.8 |
| 20260831030454 | 33 | 259 | 4.8 | 9.7 | 0.00 | 0.00 | 0.00 | 41 | 1014.8 |
| 20260831025952 | 33 | 90 | 1.6 | 11.3 | 0.00 | 0.00 | 0.00 | 41 | 1014.7 |
| 20260831025452 | 33 | 146 | 0.0 | 3.2 | 0.00 | 0.00 | 0.00 | 41 | 1014.6 |
| 20260831024948 | 33 | 260 | 1.6 | 11.3 | 0.00 | 0.00 | 0.00 | 40 | 1014.6 |
| 20260831024443 | 33 | 240 | 6.4 | 11.3 | 0.00 | 0.00 | 0.00 | 40 | 1014.6 |
| 20260831023942 | 33 | 19 | 1.6 | 6.4 | 0.00 | 0.00 | 0.00 | 40 | 1014.3 |
| 20260831023440 | 33 | 58 | 3.2 | 6.4 | 0.00 | 0.00 | 0.00 | 40 | 1014.2 |
| 20260831022936 | 33 | 165 | 1.6 | 4.8 | 0.00 | 0.00 | 0.00 | 39 | 1014.2 |
| 20260831022435 | 33 | 149 | 1.6 | 6.4 | 0.00 | 0.00 | 0.00 | 39 | 1014.2 |
| 20260831021930 | 33 | 261 | 3.2 | 9.7 | 0.00 | 0.00 | 0.00 | 39 | 1014.1 |
| 20260831021429 | 33 | 345 | 3.2 | 4.8 | 0.00 | 0.00 | 0.00 | 39 | 1014.0 |
| 20260831020925 | 33 | 113 | 0.0 | 1.6 | 0.00 | 0.00 | 0.00 | 38 | 1013.9 |
| 20260831020425 | 33 | 80 | 1.6 | 3.2 | 0.00 | 0.00 | 0.00 | 38 | 1013.8 |
| 20260831015920 | 33 | 324 | 1.6 | 1.6 | 0.00 | 0.00 | 0.00 | 38 | 1013.7 |
| 20260831015416 | 33 | 268 | 1.6 | 3.2 | 0.00 | 0.00 | 0.00 | 38 | 1013.7 |
| 20260831014911 | 34 | 180 | 1.6 | 1.6 | 0.00 | 0.00 | 0.00 | 37 | 1013.7 |
| 20260831014410 | 34 | 280 | 1.6 | 4.8 | 0.00 | 0.00 | 0.00 | 37 | 1013.6 |
| 20260831013907 | 34 | 302 | 3.2 | 4.8 | 0.00 | 0.00 | 0.00 | 36 | 1013.4 |
| 20260831013402 | 34 | 72 | 3.2 | 3.2 | 0.00 | 0.00 | 0.00 | 36 | 1013.6 |
| 20260831012902 | 35 | 189 | 1.6 | 3.2 | 0.00 | 0.00 | 0.00 | 36 | 1013.3 |
| 20260831012357 | 35 | 255 | 0.0 | 4.8 | 0.00 | 0.00 | 0.00 | 36 | 1013.3 |
| 20260831011852 | 35 | 324 | 0.0 | 3.2 | 0.00 | 0.00 | 0.00 | 36 | 1013.3 |
| 20260831011346 | 35 | 38 | 0.0 | 4.8 | 0.00 | 0.00 | 0.00 | 35 | 1013.2 |
| 20260831010842 | 35 | 97 | 3.2 | 6.4 | 0.00 | 0.00 | 0.00 | 35 | 1013.2 |
| 20260831010341 | 35 | 261 | 1.6 | 6.4 | 0.00 | 0.00 | 0.00 | 35 | 1013.0 |
| 20260831005838 | 35 | 270 | 1.6 | 3.2 | 0.00 | 0.00 | 0.00 | 34 | 1013.3 |
| 20260831005333 | 36 | 126 | 1.6 | 4.8 | 0.00 | 0.00 | 0.00 | 34 | 1013.2 |
| 20260831004827 | 36 | 319 | 3.2 | 6.4 | 0.00 | 0.00 | 0.00 | 33 | 1013.1 |
| 20260831004324 | 36 | 37 | 1.6 | 4.8 | 0.00 | 0.00 | 0.00 | 33 | 1013.3 |
| 20260831003819 | 36 | 203 | 6.4 | 6.4 | 0.00 | 0.00 | 0.00 | 33 | 1013.2 |
| 20260831003315 | 36 | 245 | 1.6 | 11.3 | 0.00 | 0.00 | 0.00 | 33 | 1013.3 |
| 20260831002815 | 36 | 65 | 3.2 | 11.3 | 0.00 | 0.00 | 0.00 | 33 | 1013.3 |
| 20260831002308 | 36 | 238 | 6.4 | 11.3 | 0.00 | 0.00 | 0.00 | 32 | 1013.1 |
| 20260831001805 | 37 | 222 | 6.4 | 11.3 | 0.00 | 0.00 | 0.00 | 32 | 1013.0 |
| 20260831001304 | 37 | 276 | 6.4 | 11.3 | 0.00 | 0.00 | 0.00 | 32 | 1013.0 |
| 20260831000802 | 37 | 236 | 4.8 | 12.9 | 0.00 | 0.00 | 0.00 | 32 | 1013.3 |
| 20260831000303 | 37 | 243 | 8.0 | 14.5 | 0.00 | 0.00 | 0.00 | 32 | 1013.3 |
| 20260830235800 | 37 | 318 | 1.6 | 4.8 | 0.00 | 0.00 | 0.00 | 32 | 1013.1 |
| 20260830235255 | 37 | 25 | 4.8 | 11.3 | 0.00 | 0.00 | 0.00 | 32 | 1013.4 |
| 20260830234750 | 37 | 96 | 4.8 | 6.4 | 0.00 | 0.00 | 0.00 | 32 | 1013.2 |
| 20260830234246 | 37 | 48 | 1.6 | 9.7 | 0.00 | 0.00 | 0.00 | 31 | 1013.2 |
| 20260830233742 | 37 | 230 | 3.2 | 4.8 | 0.00 | 0.00 | 0.00 | 31 | 1013.4 |
| 20260830233237 | 37 | 222 | 6.4 | 6.4 | 0.00 | 0.00 | 0.00 | 31 | 1013.2 |
| 20260830232732 | 37 | 281 | 0.0 | 11.3 | 0.00 | 0.00 | 0.00 | 31 | 1013.3 |
| 20260830232228 | 38 | 317 | 3.2 | 4.8 | 0.00 | 0.00 | 0.00 | 31 | 1013.2 |
| 20260830231725 | 38 | 290 | 3.2 | 11.3 | 0.00 | 0.00 | 0.00 | 31 | 1013.2 |
| 20260830231224 | 38 | 265 | 1.6 | 14.5 | 0.00 | 0.00 | 0.00 | 31 | 1013.3 |
| 20260830230719 | 38 | 176 | 4.8 | 11.3 | 0.00 | 0.00 | 0.00 | 31 | 1013.3 |
| 20260830230214 | 38 | 265 | 0.0 | 3.2 | 0.00 | 0.00 | 0.00 | 31 | 1013.2 |
| 20260830225709 | 38 | 215 | 3.2 | 12.9 | 0.00 | 0.00 | 0.00 | 30 | 1013.1 |
| 20260830225209 | 38 | 239 | 4.8 | 9.7 | 0.00 | 0.00 | 0.00 | 30 | 1013.4 |
| 20260830224708 | 38 | 291 | 3.2 | 4.8 | 0.00 | 0.00 | 0.00 | 30 | 1013.3 |
| 20260830224204 | 38 | 359 | 3.2 | 9.7 | 0.00 | 0.00 | 0.00 | 30 | 1013.3 |
| 20260830223701 | 39 | 224 | 3.2 | 6.4 | 0.00 | 0.00 | 0.00 | 29 | 1013.2 |
| 20260830223156 | 39 | 266 | 1.6 | 9.7 | 0.00 | 0.00 | 0.00 | 29 | 1013.2 |
| 20260830222650 | 39 | 264 | 3.2 | 6.4 | 0.00 | 0.00 | 0.00 | 29 | 1013.2 |
| 20260830222146 | 40 | 103 | 4.8 | 20.9 | 0.00 | 0.00 | 0.00 | 29 | 1013.1 |
| 20260830221641 | 40 | 319 | 3.2 | 17.7 | 0.00 | 0.00 | 0.00 | 29 | 1013.0 |
| 20260830221132 | 39 | 261 | 8.0 | 14.5 | 0.00 | 0.00 | 0.00 | 29 | 1013.0 |
| 20260830220627 | 40 | 283 | 6.4 | 12.9 | 0.00 | 0.00 | 0.00 | 29 | 1013.2 |
| 20260830220126 | 39 | 243 | 3.2 | 6.4 | 0.00 | 0.00 | 0.00 | 29 | 1013.1 |
| 20260830215625 | 39 | 112 | 8.0 | 12.9 | 0.00 | 0.00 | 0.00 | 28 | 1013.2 |
| 20260830215120 | 39 | 346 | 3.2 | 16.1 | 0.00 | 0.00 | 0.00 | 29 | 1013.1 |
| 20260830214615 | 40 | 123 | 3.2 | 11.3 | 0.00 | 0.00 | 0.00 | 28 | 1013.4 |
| 20260830214110 | 40 | 285 | 3.2 | 16.1 | 0.00 | 0.00 | 0.00 | 29 | 1013.4 |
| 20260830213609 | 40 | 237 | 4.8 | 16.1 | 0.00 | 0.00 | 0.00 | 28 | 1013.4 |
| 20260830213105 | 39 | 226 | 4.8 | 16.1 | 0.00 | 0.00 | 0.00 | 28 | 1013.4 |
| 20260830212600 | 40 | 99 | 3.2 | 9.7 | 0.00 | 0.00 | 0.00 | 28 | 1013.5 |
| 20260830212055 | 40 | 75 | 3.2 | 14.5 | 0.00 | 0.00 | 0.00 | 29 | 1013.5 |
| 20260830211550 | 39 | 3 | 1.6 | 11.3 | 0.00 | 0.00 | 0.00 | 29 | 1013.7 |
| 20260830211049 | 40 | 254 | 8.0 | 14.5 | 0.00 | 0.00 | 0.00 | 29 | 1013.6 |
| 20260830210544 | 40 | 301 | 1.6 | 6.4 | 0.00 | 0.00 | 0.00 | 28 | 1013.5 |
| 20260830210038 | 40 | 269 | 6.4 | 9.7 | 0.00 | 0.00 | 0.00 | 29 | 1013.7 |
| 20260830205536 | 40 | 81 | 1.6 | 6.4 | 0.00 | 0.00 | 0.00 | 29 | 1013.9 |
| 20260830205032 | 40 | 249 | 3.2 | 4.8 | 0.00 | 0.00 | 0.00 | 29 | 1013.9 |
| 20260830204531 | 40 | 246 | 3.2 | 11.3 | 0.00 | 0.00 | 0.00 | 29 | 1013.8 |
| 20260830204030 | 40 | 46 | 4.8 | 9.7 | 0.00 | 0.00 | 0.00 | 30 | 1014.1 |
| 20260830203527 | 40 | 241 | 1.6 | 6.4 | 0.00 | 0.00 | 0.00 | 30 | 1014.0 |
| 20260830203021 | 40 | 273 | 4.8 | 9.7 | 0.00 | 0.00 | 0.00 | 29 | 1014.3 |
| 20260830202521 | 40 | 81 | 3.2 | 6.4 | 0.00 | 0.00 | 0.00 | 29 | 1014.2 |
| 20260830202017 | 40 | 118 | 3.2 | 11.3 | 0.00 | 0.00 | 0.00 | 30 | 1014.4 |
| 20260830201516 | 40 | 183 | 4.8 | 4.8 | 0.00 | 0.00 | 0.00 | 29 | 1014.3 |
| 20260830201011 | 40 | 220 | 1.6 | 11.3 | 0.00 | 0.00 | 0.00 | 30 | 1014.5 |
| 20260830200507 | 40 | 184 | 6.4 | 6.4 | 0.00 | 0.00 | 0.00 | 30 | 1014.5 |
| 20260830200006 | 40 | 339 | 1.6 | 14.5 | 0.00 | 0.00 | 0.00 | 30 | 1014.7 |
| 20260830195501 | 39 | 296 | 6.4 | 14.5 | 0.00 | 0.00 | 0.00 | 30 | 1014.8 |
| 20260830194959 | 40 | 139 | 4.8 | 11.3 | 0.00 | 0.00 | 0.00 | 30 | 1014.9 |
| 20260830194458 | 39 | 127 | 6.4 | 9.7 | 0.00 | 0.00 | 0.00 | 31 | 1014.9 |
| 20260830193948 | 39 | 237 | 8.0 | 14.5 | 0.00 | 0.00 | 0.00 | 31 | 1015.0 |
| 20260830193447 | 40 | 198 | 8.0 | 16.1 | 0.00 | 0.00 | 0.00 | 31 | 1014.9 |
| 20260830192943 | 39 | 141 | 3.2 | 14.5 | 0.00 | 0.00 | 0.00 | 32 | 1015.0 |
| 20260830192438 | 39 | 68 | 3.2 | 14.5 | 0.00 | 0.00 | 0.00 | 32 | 1014.9 |
| 20260830191933 | 40 | 259 | 6.4 | 16.1 | 0.00 | 0.00 | 0.00 | 31 | 1015.0 |
| 20260830191432 | 39 | 157 | 3.2 | 12.9 | 0.00 | 0.00 | 0.00 | 31 | 1014.9 |
| 20260830190928 | 39 | 254 | 6.4 | 11.3 | 0.00 | 0.00 | 0.00 | 32 | 1014.8 |
| 20260830190423 | 38 | 270 | 3.2 | 14.5 | 0.00 | 0.00 | 0.00 | 33 | 1015.1 |
| 20260830185922 | 39 | 203 | 4.8 | 9.7 | 0.00 | 0.00 | 0.00 | 32 | 1015.1 |
| 20260830185418 | 38 | 232 | 3.2 | 12.9 | 0.00 | 0.00 | 0.00 | 32 | 1015.0 |
| 20260830184913 | 38 | 200 | 8.0 | 11.3 | 0.00 | 0.00 | 0.00 | 33 | 1015.2 |
| 20260830184412 | 38 | 225 | 9.7 | 17.7 | 0.00 | 0.00 | 0.00 | 33 | 1015.2 |
| 20260830183911 | 38 | 252 | 4.8 | 14.5 | 0.00 | 0.00 | 0.00 | 33 | 1015.6 |
| 20260830183406 | 38 | 200 | 4.8 | 20.9 | 0.00 | 0.00 | 0.00 | 34 | 1015.3 |
| 20260830182902 | 38 | 238 | 6.4 | 12.9 | 0.00 | 0.00 | 0.00 | 34 | 1015.4 |
| 20260830182357 | 38 | 272 | 6.4 | 14.5 | 0.00 | 0.00 | 0.00 | 34 | 1015.5 |
| 20260830181854 | 38 | 313 | 6.4 | 16.1 | 0.00 | 0.00 | 0.00 | 32 | 1015.6 |
| 20260830181349 | 38 | 243 | 4.8 | 14.5 | 0.00 | 0.00 | 0.00 | 32 | 1015.7 |
| 20260830180848 | 38 | 65 | 4.8 | 16.1 | 0.00 | 0.00 | 0.00 | 35 | 1015.6 |
| 20260830180343 | 38 | 260 | 3.2 | 11.3 | 0.00 | 0.00 | 0.00 | 34 | 1015.8 |
| 20260830175842 | 38 | 155 | 4.8 | 14.5 | 0.00 | 0.00 | 0.00 | 35 | 1015.7 |
| 20260830175337 | 37 | 118 | 1.6 | 9.7 | 0.00 | 0.00 | 0.00 | 36 | 1015.9 |
| 20260830174832 | 38 | 241 | 6.4 | 17.7 | 0.00 | 0.00 | 0.00 | 35 | 1015.9 |
| 20260830174327 | 37 | 315 | 1.6 | 16.1 | 0.00 | 0.00 | 0.00 | 35 | 1015.8 |
| 20260830173827 | 37 | 242 | 14.5 | 20.9 | 0.00 | 0.00 | 0.00 | 36 | 1015.8 |
| 20260830173323 | 37 | 313 | 8.0 | 12.9 | 0.00 | 0.00 | 0.00 | 36 | 1016.3 |
| 20260830172819 | 37 | 276 | 1.6 | 16.1 | 0.00 | 0.00 | 0.00 | 36 | 1016.4 |
| 20260830172315 | 37 | 328 | 3.2 | 9.7 | 0.00 | 0.00 | 0.00 | 37 | 1016.3 |
| 20260830171811 | 37 | 85 | 3.2 | 12.9 | 0.00 | 0.00 | 0.00 | 37 | 1016.3 |
| 20260830171306 | 37 | 294 | 6.4 | 11.3 | 0.00 | 0.00 | 0.00 | 37 | 1016.6 |
| 20260830170800 | 37 | 48 | 3.2 | 6.4 | 0.00 | 0.00 | 0.00 | 38 | 1016.6 |
| 20260830170259 | 37 | 325 | 6.4 | 14.5 | 0.00 | 0.00 | 0.00 | 38 | 1016.6 |
| 20260830165753 | 36 | 202 | 6.4 | 14.5 | 0.00 | 0.00 | 0.00 | 38 | 1016.6 |
| 20260830165249 | 37 | 243 | 12.9 | 17.7 | 0.00 | 0.00 | 0.00 | 38 | 1016.6 |
| 20260830164745 | 36 | 75 | 0.0 | 20.9 | 0.00 | 0.00 | 0.00 | 39 | 1016.7 |
| 20260830164241 | 36 | 171 | 6.4 | 11.3 | 0.00 | 0.00 | 0.00 | 38 | 1016.4 |
| 20260830163738 | 36 | 196 | 1.6 | 14.5 | 0.00 | 0.00 | 0.00 | 39 | 1016.5 |
| 20260830163233 | 36 | 315 | 6.4 | 20.9 | 0.00 | 0.00 | 0.00 | 40 | 1016.6 |
| 20260830162727 | 36 | 258 | 6.4 | 12.9 | 0.00 | 0.00 | 0.00 | 39 | 1016.6 |
| 20260830162223 | 36 | 32 | 4.8 | 11.3 | 0.00 | 0.00 | 0.00 | 40 | 1016.8 |
| 20260830161718 | 36 | 172 | 4.8 | 12.9 | 0.00 | 0.00 | 0.00 | 40 | 1016.8 |
| 20260830161212 | 35 | 242 | 3.2 | 11.3 | 0.00 | 0.00 | 0.00 | 40 | 1016.9 |
| 20260830160708 | 36 | 277 | 9.7 | 17.7 | 0.00 | 0.00 | 0.00 | 40 | 1016.9 |
| 20260830160203 | 36 | 248 | 6.4 | 14.5 | 0.00 | 0.00 | 0.00 | 40 | 1016.7 |
| 20260830155700 | 35 | 198 | 8.0 | 11.3 | 0.00 | 0.00 | 0.00 | 41 | 1016.8 |
| 20260830155155 | 35 | 189 | 3.2 | 9.7 | 0.00 | 0.00 | 0.00 | 43 | 1016.9 |
| 20260830154650 | 35 | 251 | 6.4 | 11.3 | 0.00 | 0.00 | 0.00 | 43 | 1016.8 |
| 20260830154146 | 34 | 270 | 3.2 | 4.8 | 0.00 | 0.00 | 0.00 | 43 | 1016.6 |
| 20260830153643 | 33 | 257 | 3.2 | 6.4 | 0.00 | 0.00 | 0.00 | 45 | 1016.8 |
| 20260830153142 | 33 | 18 | 3.2 | 11.3 | 0.00 | 0.00 | 0.00 | 46 | 1016.7 |
| 20260830152641 | 33 | 263 | 3.2 | 6.4 | 0.00 | 0.00 | 0.00 | 45 | 1016.8 |
| 20260830152140 | 33 | 83 | 3.2 | 6.4 | 0.00 | 0.00 | 0.00 | 46 | 1016.9 |
| 20260830151636 | 33 | 233 | 4.8 | 9.7 | 0.00 | 0.00 | 0.00 | 47 | 1016.8 |
| 20260830151135 | 32 | 240 | 1.6 | 6.4 | 0.00 | 0.00 | 0.00 | 47 | 1016.8 |
| 20260830150630 | 32 | 295 | 3.2 | 9.7 | 0.00 | 0.00 | 0.00 | 48 | 1016.9 |
| 20260830150125 | 32 | 338 | 4.8 | 9.7 | 0.00 | 0.00 | 0.00 | 48 | 1016.9 |
| 20260830145624 | 32 | 189 | 4.8 | 12.9 | 0.00 | 0.00 | 0.00 | 48 | 1016.9 |
| 20260830145120 | 31 | 112 | 4.8 | 11.3 | 0.00 | 0.00 | 0.00 | 49 | 1016.8 |
| 20260830144615 | 31 | 36 | 1.6 | 12.9 | 0.00 | 0.00 | 0.00 | 49 | 1017.0 |
| 20260830144111 | 31 | 254 | 3.2 | 12.9 | 0.00 | 0.00 | 0.00 | 49 | 1017.1 |
| 20260830143607 | 31 | 304 | 3.2 | 6.4 | 0.00 | 0.00 | 0.00 | 50 | 1016.8 |
| 20260830143105 | 31 | 36 | 4.8 | 12.9 | 0.00 | 0.00 | 0.00 | 50 | 1017.0 |
| 20260830142600 | 30 | 276 | 6.4 | 9.7 | 0.00 | 0.00 | 0.00 | 50 | 1017.2 |
| 20260830142055 | 30 | 264 | 3.2 | 12.9 | 0.00 | 0.00 | 0.00 | 51 | 1017.0 |
| 20260830141550 | 30 | 335 | 8.0 | 12.9 | 0.00 | 0.00 | 0.00 | 50 | 1017.2 |
| 20260830141050 | 30 | 341 | 4.8 | 9.7 | 0.00 | 0.00 | 0.00 | 51 | 1017.3 |
| 20260830140545 | 30 | 215 | 3.2 | 14.5 | 0.00 | 0.00 | 0.00 | 51 | 1017.2 |
| 20260830140041 | 30 | 335 | 1.6 | 9.7 | 0.00 | 0.00 | 0.00 | 52 | 1017.2 |
| 20260830135536 | 30 | 228 | 1.6 | 9.7 | 0.00 | 0.00 | 0.00 | 51 | 1017.1 |
| 20260830135031 | 30 | 350 | 4.8 | 6.4 | 0.00 | 0.00 | 0.00 | 52 | 1017.2 |
| 20260830134527 | 29 | 275 | 0.0 | 14.5 | 0.00 | 0.00 | 0.00 | 52 | 1017.1 |
| 20260830134022 | 29 | 231 | 1.6 | 6.4 | 0.00 | 0.00 | 0.00 | 53 | 1017.1 |
| 20260830133518 | 28 | 335 | 3.2 | 11.3 | 0.00 | 0.00 | 0.00 | 53 | 1016.9 |
| 20260830133012 | 28 | 108 | 6.4 | 11.3 | 0.00 | 0.00 | 0.00 | 53 | 1017.2 |
| 20260830132509 | 28 | 218 | 1.6 | 6.4 | 0.00 | 0.00 | 0.00 | 55 | 1017.2 |
| 20260830132009 | 28 | 218 | 1.6 | 6.4 | 0.00 | 0.00 | 0.00 | 55 | 1017.2 |
| 20260830131507 | 27 | 160 | 3.2 | 3.2 | 0.00 | 0.00 | 0.00 | 55 | 1017.0 |
| 20260830131002 | 27 | 219 | 4.8 | 6.4 | 0.00 | 0.00 | 0.00 | 57 | 1017.0 |
| 20260830130457 | 26 | 340 | 3.2 | 3.2 | 0.00 | 0.00 | 0.00 | 57 | 1017.0 |
| 20260830125955 | 26 | 278 | 3.2 | 4.8 | 0.00 | 0.00 | 0.00 | 58 | 1017.0 |
| 20260830125451 | 26 | 95 | 3.2 | 3.2 | 0.00 | 0.00 | 0.00 | 58 | 1016.9 |
| 20260830124949 | 26 | 301 | 1.6 | 4.8 | 0.00 | 0.00 | 0.00 | 58 | 1016.9 |
| 20260830124439 | 26 | 274 | 0.0 | 1.6 | 0.00 | 0.00 | 0.00 | 59 | 1016.7 |
| 20260830123936 | 26 | 42 | 1.6 | 4.8 | 0.00 | 0.00 | 0.00 | 59 | 1016.7 |
| 20260830123432 | 26 | 42 | 0.0 | 4.8 | 0.00 | 0.00 | 0.00 | 59 | 1016.9 |
| 20260830122930 | 26 | 40 | 1.6 | 3.2 | 0.00 | 0.00 | 0.00 | 59 | 1016.6 |
| 20260830122429 | 26 | 95 | 0.0 | 1.6 | 0.00 | 0.00 | 0.00 | 59 | 1016.7 |
| 20260830121924 | 26 | 17 | 1.6 | 4.8 | 0.00 | 0.00 | 0.00 | 58 | 1016.6 |
| 20260830121420 | 26 | 302 | 3.2 | 6.4 | 0.00 | 0.00 | 0.00 | 58 | 1016.5 |
| 20260830120914 | 26 | 112 | 1.6 | 4.8 | 0.00 | 0.00 | 0.00 | 58 | 1016.6 |
| 20260830120410 | 26 | 36 | 1.6 | 6.4 | 0.00 | 0.00 | 0.00 | 58 | 1016.6 |
| 20260830115906 | 26 | 154 | 1.6 | 3.2 | 0.00 | 0.00 | 0.00 | 58 | 1016.6 |
| 20260830115402 | 26 | 113 | 1.6 | 4.8 | 0.00 | 0.00 | 0.00 | 58 | 1016.4 |
| 20260830114857 | 26 | 191 | 1.6 | 4.8 | 0.00 | 0.00 | 0.00 | 58 | 1016.4 |
| 20260830114354 | 26 | 275 | 3.2 | 4.8 | 0.00 | 0.00 | 0.00 | 58 | 1016.4 |
| 20260830113848 | 26 | 41 | 1.6 | 1.6 | 0.00 | 0.00 | 0.00 | 58 | 1016.6 |
| 20260830113343 | 26 | 326 | 1.6 | 3.2 | 0.00 | 0.00 | 0.00 | 58 | 1016.4 |
| 20260830112839 | 26 | 254 | 1.6 | 3.2 | 0.00 | 0.00 | 0.00 | 58 | 1016.5 |
| 20260830112334 | 26 | 46 | 3.2 | 4.8 | 0.00 | 0.00 | 0.00 | 57 | 1016.5 |
| 20260830111830 | 26 | 24 | 3.2 | 6.4 | 0.00 | 0.00 | 0.00 | 57 | 1016.4 |
| 20260830111325 | 26 | 270 | 0.0 | 3.2 | 0.00 | 0.00 | 0.00 | 57 | 1016.3 |
| 20260830110820 | 26 | 291 | 3.2 | 4.8 | 0.00 | 0.00 | 0.00 | 56 | 1016.3 |